Theta_e
307 308 311 312 312 312 311 315 327 326 326 320 318 321 324 324 325 325 325 325 324 326 326 325 325 327 326 326 326 323 319 318 321 321 324 321 319 318 316 321 327 328 335 338
307 308 310 312 312 313 312 312 316 325 324 322 321 321 324 325 326 326 325 325 325 324 325 326 326 326 326 326 328 327 321 317 320 320 321 326 323 322 325 320 320 325 339 342
307 308 309 311 312 313 313 315 324 320 318 318 324 324 325 326 327 328 325 326 323 324 324 323 326 326 326 324 326 340 327 318 319 321 322 327 333 333 332 328 326 333 340 342
307 308 310 313 312 313 317 317 323 320 322 321 322 322 323 325 326 325 323 324 325 325 324 324 325 325 324 326 331 328 322 324 324 323 325 334 332 332 330 332 329 333 334 341
307 307 311 313 312 313 319 317 317 316 318 318 319 320 322 324 324 325 325 326 328 323 325 325 326 325 326 328 326 326 324 327 326 328 331 333 332 333 334 335 334 333 334 336
307 307 309 312 312 312 314 315 317 315 318 318 320 320 322 324 324 325 325 325 326 326 325 324 322 320 321 323 327 325 327 329 330 331 330 330 335 332 332 333 335 333 334 332
306 307 307 311 312 311 312 315 315 316 321 320 321 321 322 323 323 324 323 322 322 323 320 321 321 321 321 324 324 322 326 329 331 332 332 336 329 328 331 333 334 333 334 334
304 305 308 308 311 311 311 313 315 318 320 320 320 319 322 321 320 321 322 322 320 318 320 321 323 322 324 326 326 325 323 328 329 334 334 332 333 334 335 335 334 334 335 334
304 304 307 306 308 310 310 314 315 316 317 316 317 319 320 319 319 320 321 319 317 319 319 322 325 327 327 326 326 321 321 323 327 331 335 337 332 333 332 331 335 334 336 336
304 306 306 306 306 307 310 310 311 314 315 313 315 317 317 317 318 319 319 319 319 320 324 324 323 325 324 327 326 325 323 326 331 328 332 331 331 333 331 335 334 333 333 333
304 305 305 305 306 306 309 308 312 312 314 314 314 314 315 314 314 318 317 319 319 320 327 332 331 329 327 329 325 325 325 328 329 328 330 332 333 335 333 330 329 334 340 341
304 305 305 305 306 306 308 310 308 310 311 312 313 313 312 312 313 313 313 317 317 319 321 324 323 327 328 330 333 332 336 332 334 333 331 332 331 332 328 328 330 331 341 342
303 304 304 304 305 306 306 307 307 311 308 310 310 311 313 313 313 314 313 313 315 317 317 317 321 327 329 332 332 333 333 329 336 330 331 332 331 329 330 328 329 332 333 344
303 304 304 304 304 304 305 306 306 309 311 314 310 313 312 313 313 313 313 314 315 313 314 317 318 324 322 327 328 329 329 329 330 327 327 330 333 331 330 330 329 332 333 339
303 304 304 304 304 304 305 307 309 310 312 314 314 312 313 313 312 313 313 313 313 314 315 317 320 317 319 319 320 322 328 328 328 327 324 327 327 328 330 330 329 330 335 336
302 304 304 303 303 304 306 309 311 312 310 312 309 308 309 312 317 316 314 314 316 317 317 318 315 315 318 323 322 319 319 326 324 326 326 326 327 330 329 330 329 332 334 334
300 303 303 303 303 303 305 307 311 311 308 312 313 311 311 318 320 320 320 319 319 316 317 318 319 318 318 319 322 318 318 319 323 324 327 328 329 329 328 329 329 334 335 340
300 302 303 304 304 305 306 311 311 309 308 310 315 313 313 318 319 321 320 318 316 317 319 317 317 316 319 323 319 317 318 320 320 320 324 325 327 328 330 331 334 336 338 337
302 305 308 307 307 307 311 312 312 310 311 312 315 316 314 313 319 317 319 318 321 317 319 319 317 319 319 318 318 318 319 320 321 321 322 324 327 327 332 333 335 334 338 338
310 310 310 311 313 313 312 313 312 312 312 313 313 312 311 310 311 317 318 319 321 322 320 319 320 321 319 318 316 316 317 318 319 326 325 326 325 331 332 333 333 334 335 337
308 308 309 308 309 313 313 313 313 315 316 312 314 314 317 318 321 318 317 319 320 326 324 327 325 323 326 324 326 323 319 319 320 322 324 323 328 330 332 333 333 334 333 332
303 303 304 306 310 313 317 317 316 316 321 318 317 317 317 316 316 318 320 323 324 324 323 328 329 328 325 326 325 327 323 322 325 323 322 329 330 330 329 330 331 332 331 332
307 307 309 309 311 315 318 318 322 321 321 317 316 317 319 316 319 320 324 326 326 324 327 331 329 327 326 326 326 326 325 323 327 326 325 331 330 329 329 329 333 333 333 334
309 313 311 313 315 315 318 318 317 317 317 317 316 317 318 319 323 324 325 324 324 324 325 329 329 328 327 327 327 326 329 329 327 323 325 332 331 332 332 333 333 332 332 333
310 312 314 314 313 314 314 316 317 316 318 317 318 318 319 322 324 325 325 327 329 323 326 327 327 326 326 329 328 329 328 327 324 326 327 330 333 332 333 333 333 332 331 331
309 309 313 311 312 313 314 315 314 314 317 315 317 320 323 325 325 327 323 326 331 330 326 326 324 325 325 327 328 330 327 327 326 326 326 331 334 333 333 333 332 331 332 331
312 310 308 310 311 313 313 313 313 312 315 320 318 321 323 322 326 328 326 326 322 322 323 322 324 326 327 327 328 328 331 330 327 325 331 331 330 333 330 331 331 331 330 330
Wind_Speed
28 29 32 35 39 46 28 7 2 7 22 3 1 2 5 4 8 7 8 5 7 3 2 4 4 6 4 11 8 10 12 7 7 11 5 7 7 10 7 5 5 2 5 5
26 28 31 33 35 39 13 3 3 3 9 1 3 6 7 7 13 9 4 6 5 2 1 4 3 3 6 9 6 3 8 2 1 8 7 5 4 2 4 5 3 2 4 5
24 27 31 33 34 35 7 2 4 4 4 2 4 6 6 8 8 6 5 5 6 3 4 4 5 4 6 8 7 10 3 5 7 8 8 4 3 5 6 7 4 3 4 5
25 26 29 32 34 29 4 2 2 1 4 5 8 3 5 8 10 5 5 7 6 6 5 7 7 5 7 6 8 6 1 7 6 7 7 5 5 4 7 4 6 5 4 7
23 24 26 30 33 24 7 3 3 5 3 4 6 4 4 8 16 6 10 5 9 12 6 3 5 5 4 4 7 7 5 2 3 5 7 8 5 1 3 7 8 6 3 2
22 22 22 26 28 25 8 8 7 3 4 5 4 3 9 15 13 7 11 6 4 3 1 2 5 5 7 6 1 4 3 3 2 3 2 4 1 8 6 5 5 6 4 7
21 20 21 20 22 22 9 4 5 3 4 3 4 11 14 15 14 6 13 9 4 6 10 3 3 4 6 6 8 4 1 2 2 3 3 3 8 6 7 7 4 6 3 5
19 19 19 17 18 18 17 8 4 2 4 4 11 15 8 12 11 8 5 9 5 10 4 4 5 5 5 5 6 7 5 4 1 3 3 5 1 1 6 7 7 6 6 4
18 18 17 17 15 17 18 5 11 3 3 3 5 8 5 4 5 7 4 9 10 6 2 2 5 4 3 3 5 4 4 4 4 2 2 3 7 4 6 5 3 5 1 2
16 16 16 16 15 14 15 8 10 4 3 5 3 3 4 5 4 4 5 8 8 5 4 1 4 4 4 4 3 2 3 2 4 4 3 6 8 8 2 7 7 7 9 9
14 15 15 15 15 13 13 12 8 8 3 9 12 5 1 4 2 2 5 6 4 4 5 2 3 2 3 2 3 3 4 2 4 2 4 6 12 6 1 7 8 7 6 6
13 14 15 15 14 13 11 6 14 13 5 6 27 34 34 23 23 5 4 3 2 4 2 3 2 3 3 0 2 4 2 4 2 4 3 1 1 4 4 10 7 12 6 11
12 13 14 14 13 12 11 11 15 14 3 7 4 6 13 15 17 9 4 3 6 4 2 1 3 2 0 2 3 2 2 3 1 4 3 2 6 2 4 9 12 15 13 6
12 13 13 14 14 14 14 12 16 12 5 3 6 17 27 29 22 20 22 19 17 7 2 3 3 3 3 3 4 2 4 1 2 4 7 5 2 1 3 9 14 16 17 10
13 14 13 14 16 16 18 17 10 9 4 3 8 26 19 20 18 20 20 17 7 3 2 3 4 3 1 4 1 5 5 6 4 5 6 4 7 7 4 6 9 13 11 15
14 14 15 16 15 15 10 2 4 6 6 2 4 8 8 25 19 10 7 9 6 4 4 4 4 7 5 4 4 6 7 4 6 5 3 6 6 5 6 7 5 11 13 9
16 16 17 16 13 12 4 5 2 5 14 2 4 5 5 8 6 4 3 1 4 4 3 4 6 5 5 5 14 8 8 8 7 7 4 4 5 6 4 8 11 14 15 11
18 18 18 16 14 13 9 5 5 10 5 2 3 4 5 4 3 3 3 3 2 3 4 2 4 1 3 8 11 9 9 9 8 9 10 12 5 6 7 4 3 8 1 4
18 17 13 3 1 2 4 4 3 6 2 1 2 3 4 6 3 3 3 1 3 3 3 4 5 4 5 7 8 8 9 9 11 8 8 8 11 13 9 7 5 4 4 4
10 5 2 2 1 10 5 0 1 1 1 2 2 2 4 2 2 3 2 1 3 3 4 3 3 7 15 13 9 8 10 12 9 5 6 7 7 9 9 13 10 15 11 6
5 5 2 9 8 3 1 1 1 2 2 3 4 5 4 3 4 4 3 2 2 2 4 1 3 3 2 6 7 5 11 11 10 11 9 8 8 8 6 7 9 14 9 5
10 12 11 6 2 2 2 3 2 3 3 3 3 4 4 4 1 1 3 3 1 5 4 3 2 3 12 11 11 10 7 6 5 11 12 9 10 9 8 6 7 5 11 4
2 2 3 1 2 1 3 2 0 2 2 3 2 3 2 4 2 3 3 3 3 3 3 3 2 3 9 9 8 11 10 11 12 11 11 12 9 13 4 8 7 9 4 4
2 2 4 4 3 4 4 3 3 4 4 4 3 2 2 3 3 2 3 3 1 3 3 3 3 9 12 9 7 10 10 10 7 10 11 14 15 9 4 3 15 15 9 10
3 2 4 5 5 3 4 3 1 5 3 2 3 2 1 3 3 2 3 3 1 3 4 3 6 15 13 11 11 8 8 7 5 7 6 8 10 14 13 18 19 10 4 4
3 4 3 4 3 4 3 2 3 2 2 2 0 2 2 3 2 2 3 4 4 5 8 10 11 15 14 10 12 11 6 7 5 3 4 11 11 15 23 30 27 20 16 9
4 4 4 6 6 7 4 2 3 2 2 2 1 2 3 4 3 4 2 3 6 11 11 11 12 15 15 9 10 10 5 4 4 3 7 11 21 27 21 16 27 36 35 44
Wind_Direction
355 355 355 356 358 355 3 355 11 159 161 63 175 191 226 255 280 287 264 229 239 234 314 245 214 226 199 312 248 162 200 168 218 228 232 210 187 200 148 128 258 178 158 275
357 356 355 355 359 359 343 347 273 313 208 176 297 301 292 271 281 279 268 257 216 157 96 350 231 276 279 302 353 225 167 218 146 341 349 11 171 149 115 127 103 240 167 232
358 358 357 355 355 353 338 20 1 328 25 95 33 354 297 326 310 298 359 291 320 4 329 162 272 310 304 344 313 306 108 131 162 194 206 173 170 167 127 111 97 259 165 316
360 360 359 358 357 357 32 63 345 352 339 335 332 292 280 318 328 327 355 324 343 314 298 347 344 334 325 345 1 357 79 185 169 197 220 178 209 208 145 131 168 135 252 175
359 1 3 4 4 7 28 53 30 341 277 296 344 330 311 335 330 340 320 28 335 61 94 150 290 336 356 285 337 4 346 279 188 199 180 191 220 204 132 147 133 151 147 202
359 1 2 8 9 19 22 354 332 109 277 325 13 306 337 321 354 294 331 314 338 32 93 270 256 228 243 241 307 321 41 26 48 268 56 115 42 194 194 204 164 159 126 211
357 359 0 8 12 16 6 326 323 25 287 339 353 324 335 336 319 276 308 339 24 302 300 275 326 318 329 321 309 162 346 48 92 217 45 274 236 237 203 194 120 145 158 259
355 355 357 1 4 7 1 335 337 352 292 330 311 345 323 323 341 338 293 355 269 289 0 23 10 340 355 300 223 258 157 127 21 140 178 278 325 172 149 160 235 183 204 306
352 352 353 354 353 355 355 24 11 305 297 264 14 320 336 332 325 325 286 331 303 14 28 85 199 210 223 285 302 92 94 121 138 138 123 212 238 238 163 120 261 161 233 328
349 350 350 351 353 350 346 307 353 302 267 273 77 305 312 309 342 282 324 329 330 23 3 297 198 234 239 230 195 285 350 339 193 175 186 278 340 275 236 124 231 170 164 210
344 346 348 349 351 351 346 310 32 354 276 287 270 272 252 315 267 264 314 347 347 346 23 357 322 34 287 341 258 225 194 183 223 177 160 236 353 349 161 321 305 204 165 135
339 344 345 345 348 350 344 298 320 328 239 257 292 283 279 254 251 246 247 243 4 257 39 6 348 346 322 100 280 349 149 183 224 182 193 169 69 144 281 12 16 318 292 154
332 335 342 342 341 345 339 308 315 322 291 289 276 259 301 293 264 269 186 256 211 261 145 228 232 264 75 297 268 16 264 192 236 360 89 183 269 183 356 346 347 325 339 179
328 331 334 336 333 329 326 310 304 302 276 287 282 315 303 300 285 270 226 234 257 262 335 238 234 183 191 243 247 187 212 62 196 266 291 302 212 168 282 326 335 346 348 304
322 324 326 328 328 325 318 306 284 278 233 278 293 301 290 309 293 275 229 210 221 219 219 220 231 217 213 247 278 245 184 200 173 230 241 189 261 303 289 282 334 333 350 324
318 317 320 322 325 328 335 313 54 97 20 308 310 306 297 308 321 285 229 214 222 212 189 216 221 213 175 248 236 234 215 205 192 234 223 206 263 268 291 282 338 324 318 275
316 314 313 315 314 308 257 246 255 264 329 301 293 296 267 307 359 342 331 228 214 181 214 213 229 237 157 237 249 234 259 254 234 233 182 273 220 260 223 291 330 345 286 251
315 313 310 307 298 285 279 282 311 257 195 236 279 277 319 335 354 356 309 285 319 270 217 196 203 196 175 251 233 223 224 234 247 243 211 235 201 213 265 266 113 270 311 1
317 313 315 286 205 229 252 260 310 184 135 263 284 291 287 341 315 255 315 48 303 286 236 219 144 197 226 232 198 205 215 216 235 239 226 220 211 233 208 265 29 292 251 120
326 325 277 266 231 297 285 114 88 100 226 240 257 262 269 310 292 284 321 249 253 298 261 345 224 245 250 247 240 220 219 221 220 231 267 267 227 208 202 190 195 214 223 173
357 350 291 305 323 253 213 274 178 167 239 206 236 223 239 252 235 249 222 277 269 284 270 254 261 273 10 320 317 309 254 218 213 220 231 240 199 193 199 201 173 167 199 186
319 297 295 285 277 225 254 246 171 206 263 193 222 245 216 277 263 183 266 237 251 251 315 263 247 299 329 327 315 315 288 270 258 237 227 179 182 192 174 177 145 177 162 281
304 232 261 109 261 291 221 261 229 267 283 246 253 306 278 316 268 261 280 271 243 319 234 276 240 233 282 294 292 300 279 257 255 216 194 172 174 205 182 140 131 58 31 201
248 248 271 203 237 232 201 218 227 252 230 260 234 252 241 287 293 262 268 260 316 299 293 283 288 307 314 297 298 288 280 286 225 180 189 168 179 188 171 164 110 88 43 101
262 233 242 227 237 282 265 226 15 273 243 233 302 250 206 270 283 265 294 268 216 246 263 266 313 312 310 319 327 304 322 324 176 181 172 134 130 135 137 133 124 132 80 106
246 236 282 283 326 312 309 305 285 288 281 336 47 302 296 278 250 273 287 283 344 327 319 324 318 313 321 328 324 321 304 311 265 213 176 135 158 157 145 141 157 186 186 245
235 240 220 248 277 263 250 234 264 255 18 303 329 317 258 300 320 303 342 345 297 306 307 313 319 318 323 327 312 325 305 351 14 41 40 124 145 155 159 165 179 169 164 210